Tracking 29892 objects as of 21-Nov-2024
HD Live streaming from Space Station
objects crossing your sky now

DELTA 1 DEB

Track DELTA 1 DEB now!
10-day predictions


NORAD ID: 13826
Int'l Code: 1978-026FV
Perigee: 631.4 km
Apogee: 678.2 km
Inclination: 98.2 °
Period: 97.7 minutes
Semi major axis: 7025 km
RCS: 0.004 m2 (small)
Launch date: March 5, 1978
Source: United States (US)
Launch site: AIR FORCE WESTERN TEST RANGE (AFWTR)

Note: This is SATELLITE DEBRIS
Your satellite tracking list
Your tracking list is empty




NASA's NSSDC Master Catalog

Two Line Element Set (TLE):
1 13826U 78026FV  24325.82389609  .00010905  00000-0  16420-2 0  9994
2 13826  98.2470 318.3445 0033302 140.4332 219.9315 14.74222461217438
Source of the keplerian elements: AFSPC